Racine, WI

7:53 AM CDT on June 24, 2017 (GMT -0500)
Batten

Weather History for KRAC - January, 2014

Change the Weather History Date:

Wednesday, January 15, 2014

  Actual Average Record
Temperature  
Mean Temperature 14 °F -  
Max Temperature 19 °F 26 °F 55 °F (1953)
Min Temperature 10 °F 11 °F -21 °F (1972)
Degree Days  
Heating Degree Days 50    
Moisture  
Dew Point 8 °F    
Average Humidity 72    
Maximum Humidity 77    
Minimum Humidity 62    
Precipitation  
Precipitation 0.00 in - - ()
Sea Level Pressure  
Sea Level Pressure 29.99 in    
Wind  
Wind Speed 12 mph (West)    
Max Wind Speed 16 mph    
Max Gust Speed 25 mph    
Visibility 9 miles    
Events Snow    
Averages and records for this station are not official NWS values.
T = Trace of Precipitation, MM = Missing Value Source: NWS Daily Summary

Daily Weather History Graph

Daily Weather History Graph

Search for Another Location

Airport or City:

Trip Planner

Search our weather history database for the weather conditions in past years. The results will help you decide how hot, cold, wet, or windy it might be!

Date:

Astronomy

Jan. 15, 2014 Rise Set
Actual Time 7:18 AM CST 4:42 PM CST
Civil Twilight 6:47 AM CST 5:14 PM CST
Nautical Twilight 6:12 AM CST 5:49 PM CST
Astronomical Twilight 5:38 AM CST 6:22 PM CST
Moon 4:41 PM CST (1/15) 6:33 AM CST (1/15)
Length of Visible Light 10h 26m
Length of Day
9h 23m
Full, 100% of the Moon is Illuminated
Jan 15
Full
Jan 15
Full
Jan 23
Last Quarter
Jan 30
New
Feb 6
First Quarter

Hourly Weather History & Observations

Time (CST) Temp. Windchill Dew Point Humidity Pressure Visibility Wind Dir Wind Speed Gust Speed Precip Events Conditions
12:48 AM 19.4 °F 5.0 °F 12.2 °F 74% 29.86 in 4.0 mi WNW 16.1 mph 21.9 mph 0.00 in Snow Light Snow
12:53 AM 19.0 °F 6.1 °F 12.0 °F 74% 29.88 in 5.0 mi NW 12.7 mph 21.9 mph 0.00 in Snow Light Snow
1:44 AM 18.0 °F 5.4 °F 10.9 °F 74% 29.89 in 5.0 mi NW 11.5 mph 25.3 mph 0.00 in Snow Light Snow
1:53 AM 18.0 °F 3.6 °F 10.9 °F 74% 29.93 in 5.0 mi NW 15.0 mph - 0.00 in Snow Light Snow
2:53 AM 18.0 °F 4.8 °F 10.9 °F 74% 29.95 in 7.0 mi NW 12.7 mph - 0.00 in Snow Light Snow
3:37 AM 16.0 °F 4.4 °F 10.0 °F 77% 29.94 in 8.0 mi WNW 9.2 mph 20.7 mph 0.00 in   Overcast
3:53 AM 15.1 °F 3.3 °F 9.0 °F 77% 29.98 in 10.0 mi WNW 9.2 mph - 0.00 in   Overcast
4:18 AM 15.1 °F 4.2 °F 9.0 °F 77% 29.96 in 10.0 mi WNW 8.1 mph - N/A   Overcast
4:53 AM 15.1 °F 3.3 °F 9.0 °F 77% 30.00 in 10.0 mi West 9.2 mph - N/A   Overcast
5:53 AM 12.9 °F 0.7 °F 7.0 °F 77% 30.02 in 10.0 mi WNW 9.2 mph - N/A   Scattered Clouds
6:53 AM 12.0 °F -0.4 °F 6.1 °F 77% 30.05 in 10.0 mi WNW 9.2 mph - N/A   Clear
7:53 AM 12.0 °F -0.4 °F 6.1 °F 77% 30.06 in 10.0 mi WNW 9.2 mph - N/A   Clear
8:53 AM 14.0 °F 2.0 °F 6.1 °F 71% 30.08 in 10.0 mi WNW 9.2 mph - N/A   Clear
9:53 AM 16.0 °F 2.3 °F 6.1 °F 65% 30.08 in 10.0 mi WNW 12.7 mph - N/A   Clear
10:53 AM 17.1 °F 4.3 °F 7.0 °F 65% 30.09 in 10.0 mi WNW 11.5 mph - N/A   Clear
11:53 AM 18.0 °F 7.7 °F 7.0 °F 62% 30.07 in 10.0 mi West 8.1 mph - N/A   Partly Cloudy
12:19 PM 18.0 °F 6.1 °F 8.1 °F 65% 30.03 in 10.0 mi WSW 10.4 mph 19.6 mph N/A   Mostly Cloudy
12:53 PM 16.0 °F 4.4 °F 7.0 °F 68% 30.07 in 10.0 mi West 9.2 mph - N/A   Overcast
1:53 PM 16.0 °F 3.6 °F 7.0 °F 68% 30.05 in 10.0 mi West 10.4 mph - 0.00 in   Overcast
2:53 PM 15.1 °F 3.3 °F 7.0 °F 70% 30.05 in 9.0 mi West 9.2 mph - 0.00 in   Overcast
3:53 PM 14.0 °F 2.9 °F 6.1 °F 71% 30.04 in 10.0 mi WSW 8.1 mph - N/A   Mostly Cloudy
4:53 PM 14.0 °F -0.8 °F 7.0 °F 74% 30.04 in 10.0 mi SW 13.8 mph - N/A   Overcast
5:12 PM 12.9 °F -0.2 °F 6.1 °F 74% 30.00 in 10.0 mi WSW 10.4 mph - N/A   Scattered Clouds
5:53 PM 12.9 °F 0.7 °F 5.0 °F 71% 30.04 in 10.0 mi WSW 9.2 mph - N/A   Clear
6:53 PM 10.9 °F 0.2 °F 3.9 °F 73% 30.01 in 10.0 mi SW 6.9 mph - N/A   Clear
7:53 PM 12.0 °F -2.0 °F 5.0 °F 73% 29.97 in 10.0 mi SW 11.5 mph - N/A   Clear
8:53 PM 12.9 °F 0.7 °F 5.0 °F 71% 29.94 in 10.0 mi SSW 9.2 mph - N/A   Clear
9:53 PM 14.0 °F -0.2 °F 7.0 °F 74% 29.91 in 10.0 mi SSW 12.7 mph - N/A   Overcast
10:53 PM 16.0 °F 2.3 °F 9.0 °F 74% 29.86 in 10.0 mi SSW 12.7 mph 21.9 mph N/A   Overcast
11:53 PM 18.0 °F 3.6 °F 10.0 °F 71% 29.83 in 10.0 mi SW 15.0 mph 21.9 mph N/A   Overcast